#timestamp,LO_Frequency,Hit,StdDev 
1506340815.2,286047002.4,N
1506340835.0,286047001.4,N
1506340835.9,286047001.4,N
1506340855.8,286047000.1,N
1506340875.6,286047003.3,N
1506340895.4,286047000.0,N
1506340915.3,286046998.1,N
1506340935.1,286046995.9,N
1506340955.8,286046995.6,N
1506340975.7,286046993.5,N
1506340995.5,286046993.7,N
1506341015.3,286046994.2,N
1506341035.2,286046998.0,N
1506341055.9,286046997.6,N
1506341075.7,286046997.8,N
1506341095.6,286046993.9,N
1506341115.4,286046996.0,N
1506341135.2,286047001.2,N
1506341155.0,286046998.6,N
1506341156.0,286046998.6,N
1506341175.8,286047003.4,N
1506341195.6,286047000.3,N
1506341215.4,286046995.6,N
1506341235.3,286046995.1,N
1506341255.1,286046993.6,N
1506341275.8,286046992.2,N
1506341295.7,286046993.4,N
1506341315.5,286046996.8,N
1506341335.3,286046995.0,N
1506341355.2,286046997.4,N
1506341375.9,286046994.9,N
1506341395.7,286046994.0,N
1506341415.6,286046992.9,N
1506341435.4,286046992.3,N
1506341455.2,286046995.8,N
1506341475.1,286046989.3,Y
1506341476.0,286046989.3,P
1506341495.8,286046994.0,N
1506341515.6,286046993.6,N
1506341535.5,286046994.0,N
1506341555.3,286046995.4,N
1506341575.1,286046996.0,N
1506341595.8,286046996.1,N
1506341615.7,286046996.7,N
1506341635.5,286046998.0,N
1506341655.3,286046997.2,N
1506341675.2,286047001.2,N
1506341695.0,286046999.6,N
1506341695.9,286046999.6,N
1506341715.7,286046998.2,N
1506341735.6,286046997.7,N
1506341755.4,286046994.2,N
1506341775.2,286046994.3,N
1506341795.1,286046997.1,N
1506341796.0,286046997.1,N
1506341815.8,286046999.1,N
1506341835.6,286046999.0,N
1506341855.5,286046998.4,N
1506341875.3,286046999.1,N
1506341895.1,286046995.2,N
1506341915.9,286046997.0,N
1506341935.7,286047000.4,N
1506341955.5,286046995.4,N
1506341975.4,286046996.2,N
1506341995.2,286046997.3,N
1506342015.0,286046999.4,N
1506342015.9,286046999.4,N
1506342035.8,286046996.7,N
1506342055.6,286047001.1,N
1506342075.4,286046996.5,N
1506342095.2,286046995.9,N
1506342115.1,286046993.3,Y
1506342116.0,286046993.3,P
1506342135.8,286046999.6,N
1506342155.7,286046998.6,N
1506342175.5,286046995.8,N
1506342195.3,286046995.2,N
1506342215.1,286046995.5,N
1506342235.9,286046994.1,N
1506342255.7,286046992.2,Y
1506342275.5,286046998.1,P
1506342295.4,286047002.0,N
1506342315.2,286047002.8,N
1506342335.0,286047002.1,N
1506342335.9,286047002.1,N
1506342355.8,286047003.6,N
1506342375.6,286047001.7,N
1506342395.4,286047001.9,N
1506342415.3,286047000.5,N
1506342435.1,286046998.7,N
1506342436.0,286046998.7,N
1506342455.8,286047001.1,N
1506342475.7,286047003.3,N
1506342495.5,286047007.2,Y
1506342515.3,286047006.0,P
1506342535.2,286047001.8,N
1506342555.9,286047002.1,N
1506342575.7,286047001.9,N
1506342595.6,286047006.0,Y
1506342615.4,286047000.9,P
1506342635.2,286046999.6,N
1506342655.1,286047001.9,N
1506342656.0,286047001.9,N
1506342675.8,286046999.0,N
1506342695.6,286046999.1,N
1506342715.5,286046997.3,N
1506342735.3,286046996.6,N
1506342755.1,286046995.1,N
1506342775.8,286046997.8,N
1506342795.7,286046998.1,N
1506342815.5,286046996.9,N
1506342835.3,286046997.7,N
1506342855.2,286046995.9,N
1506342875.9,286046994.1,N
1506342895.7,286046995.0,N
1506342915.6,286046996.9,N
1506342935.4,286046995.0,N
1506342955.2,286046996.8,N
1506342975.1,286046995.9,N
1506342976.0,286046995.9,N
1506342995.8,286046994.6,N
1506343015.6,286046991.7,Y
1506343035.5,286046996.5,P
1506343055.3,286047001.2,N
1506343075.1,286046998.5,N
1506343095.9,286046998.9,N
1506343115.7,286046997.8,N
1506343135.5,286046992.9,Y
1506343155.4,286046995.2,P
1506343175.2,286046997.9,N
1506343195.0,286046995.0,P
1506343195.9,286046995.0,Y
1506343215.8,286047000.6,P
1506343235.6,286046999.9,N
1506343255.4,286047001.9,N
1506343275.3,286047004.0,N
1506343295.1,286047005.0,N
1506343296.0,286047005.0,N
1506343315.8,286047004.9,N
1506343335.7,286047005.2,N
1506343355.5,286047006.8,N
1506343375.3,286047012.1,Y
1506343395.2,286047006.5,P
1506343415.9,286047003.3,N
1506343435.7,286047005.3,P
1506343455.6,286047000.0,N
1506343475.4,286047002.4,N
1506343495.2,286047000.7,N
1506343515.0,286047001.8,N
1506343516.0,286047001.8,N
1506343535.8,286047002.6,N
1506343555.6,286046998.4,N
1506343575.4,286047000.7,N
1506343595.3,286047000.0,N
1506343615.1,286047006.0,N
1506343635.8,286047001.8,N
1506343655.7,286047000.3,N
1506343675.5,286046998.3,N
1506343695.3,286046999.9,N
1506343715.2,286046999.9,N
1506343735.9,286046998.3,N
1506343755.7,286047002.2,N
1506343775.6,286047003.7,N
1506343795.4,286047003.9,N
1506343815.2,286046999.7,N
1506343835.1,286046998.6,N
1506343836.0,286046998.6,N
1506343855.8,286046999.7,N
1506343875.6,286046998.8,N
1506343895.4,286046998.8,N
1506343915.3,286047001.0,N
1506343935.1,286047004.0,N
1506343955.8,286047002.1,N
1506343975.7,286046998.5,N
1506343995.5,286047001.7,N
1506344015.3,286047000.3,N
1506344035.2,286047002.1,N
1506344055.9,286047003.1,N
1506344075.7,286047002.1,N
1506344095.6,286047000.6,N
1506344115.4,286047001.7,N
1506344135.2,286047004.3,N
1506344155.1,286046999.7,N
1506344156.0,286046999.7,N
1506344175.8,286047000.7,N
1506344195.6,286047002.2,N
1506344215.5,286047001.5,N
1506344235.3,286047000.6,N
1506344255.1,286046997.4,N
1506344275.8,286046998.7,N
1506344295.7,286046998.9,N
1506344315.5,286046996.7,N
1506344335.3,286046999.3,N
1506344355.2,286047001.8,N
1506344375.0,286047000.4,N
1506344375.9,286047000.4,N
1506344395.7,286047000.0,N
